Satellite-Ground Cal/Val Site Overpasses Predictions

Prediction of Satellite NPP Overpassing Cal/Val Site: Antarctic Dome C

Ground Cal/Val Site Location: Latitude: -75.10, Longitude: 123.35; Satellite-Ground Site NADIR distance within 100 km.

Table of predicted overpasses for the next 14.0 days since TLE Epoch: 7/16/2022
Interval Starting Time Ending Time Minimum Distance Time Minimum Distance (km)
1 07/16/2022 15:07:59 07/16/2022 15:08:06 07/16/2022 15:08:03 96.50
2 07/17/2022 14:48:59 07/17/2022 14:49:28 07/17/2022 14:49:13 14.80
3 07/19/2022 07:31:50 07/19/2022 07:32:19 07/19/2022 07:32:04 2.59
4 07/22/2022 14:55:20 07/22/2022 14:55:49 07/22/2022 14:55:35 22.25
5 07/23/2022 14:36:38 07/23/2022 14:36:53 07/23/2022 14:36:46 84.74
6 07/24/2022 07:38:12 07/24/2022 07:38:39 07/24/2022 07:38:26 36.05
7 07/25/2022 07:19:27 07/25/2022 07:19:47 07/25/2022 07:19:37 73.97
8 07/27/2022 15:01:44 07/27/2022 15:02:08 07/27/2022 15:01:56 59.63
9 07/28/2022 14:42:54 07/28/2022 14:43:19 07/28/2022 14:43:07 49.53
